CW1795 Weather Reports


Display with metric or nautical units.
time (UTC)temp
F
wind
direction
speed
MPH
gust
MPH
rain 1hr
in
rain 24hr
in
rain mn
in
humidity
%
barometer
mb
20210922161004 56 24 3.0 7.0 0.00 0.00 0.00 43 1023.8
20210922160505 55 47 4.0 8.0 0.00 0.00 0.00 43 1023.9
20210922160006 55 28 3.0 7.0 0.00 0.00 0.00 45 1023.7
20210922155504 54 25 3.0 7.0 0.00 0.00 0.00 44 1023.8
20210922155004 54 68 4.0 6.0 0.00 0.00 0.00 44 1023.7
20210922154504 54 42 5.0 8.0 0.00 0.00 0.00 45 1023.7
20210922154005 53 50 3.0 7.0 0.00 0.00 0.00 48 1023.8
20210922153506 52 61 5.0 7.0 0.00 0.00 0.00 49 1023.8
20210922153005 51 51 3.0 7.0 0.00 0.00 0.00 50 1023.8
20210922152504 51 44 4.0 6.0 0.00 0.00 0.00 50 1023.8
20210922152005 50 25 4.0 6.0 0.00 0.00 0.00 50 1023.8
20210922151504 49 12 5.0 8.0 0.00 0.00 0.00 50 1023.8
20210922151005 49 5 3.0 6.0 0.00 0.00 0.00 51 1023.8
20210922150505 49 11 3.0 5.0 0.00 0.00 0.00 51 1023.9
20210922150006 48 11 3.0 5.0 0.00 0.00 0.00 51 1024.0
20210922145504 48 9 3.0 3.0 0.00 0.00 0.00 53 1024.0
20210922145005 47 5 2.0 5.0 0.00 0.00 0.00 54 1024.1
20210922144505 47 10 4.0 6.0 0.00 0.00 0.00 53 1023.9
20210922144005 46 12 3.0 5.0 0.00 0.00 0.00 54 1024.1
20210922143505 46 19 3.0 3.0 0.00 0.00 0.00 55 1024.1
20210922143006 45 23 2.0 3.0 0.00 0.00 0.00 57 1024.2
20210922142505 44 0 3.0 3.0 0.00 0.00 0.00 58 1024.3
20210922142005 43 0 2.0 3.0 0.00 0.00 0.00 62 1024.5
20210922141505 42 0 1.0 3.0 0.00 0.00 0.00 62 1024.5
20210922141005 41 0 2.0 3.0 0.00 0.00 0.00 66 1024.7
20210922140505 40 355 2.0 3.0 0.00 0.00 0.00 68 1024.7
20210922140004 40 355 2.0 3.0 0.00 0.00 0.00 71 1024.5
20210922135505 39 355 1.0 2.0 0.00 0.00 0.00 73 1024.5
20210922135005 38 355 1.0 3.0 0.00 0.00 0.00 72 1024.5
20210922134504 38 355 1.0 3.0 0.00 0.00 0.00 73 1024.5
20210922134004 37 355 1.0 3.0 0.00 0.00 0.00 71 1024.5
20210922133504 37 355 0.0 2.0 0.00 0.00 0.00 69 1024.4
20210922133005 37 355 1.0 2.0 0.00 0.00 0.00 70 1024.5
20210922132504 37 355 0.0 1.0 0.00 0.00 0.00 71 1024.5
20210922132005 37 355 0.0 1.0 0.00 0.00 0.00 71 1024.7
20210922131505 37 355 2.0 3.0 0.00 0.00 0.00 71 1024.6
20210922131006 37 355 2.0 3.0 0.00 0.00 0.00 71 1024.6
20210922130505 37 355 2.0 3.0 0.00 0.00 0.00 71 1024.8
20210922130005 37 355 2.0 3.0 0.00 0.00 0.00 71 1024.7
20210922125504 37 0 2.0 3.0 0.00 0.00 0.00 71 1024.8
20210922125005 37 0 1.0 3.0 0.00 0.00 0.00 70 1024.7
20210922124504 37 0 3.0 3.0 0.00 0.00 0.00 71 1024.7
20210922124004 37 0 2.0 6.0 0.00 0.00 0.00 71 1024.7
20210922123505 37 4 3.0 6.0 0.00 0.00 0.00 72 1024.7
20210922123006 37 355 1.0 3.0 0.00 0.00 0.00 72 1025.0
20210922122504 37 355 1.0 3.0 0.00 0.00 0.00 72 1025.1
20210922122005 37 355 2.0 3.0 0.00 0.00 0.00 71 1025.0
20210922121505 37 355 1.0 2.0 0.00 0.00 0.00 72 1025.1
20210922121004 37 355 2.0 3.0 0.00 0.00 0.00 71 1025.0
20210922120505 37 355 3.0 3.0 0.00 0.00 0.00 72 1025.1
20210922120005 37 355 1.0 2.0 0.00 0.00 0.00 71 1025.1
20210922115504 37 355 1.0 2.0 0.00 0.00 0.00 71 1025.2
20210922115005 38 355 1.0 2.0 0.00 0.00 0.00 71 1025.2
20210922114506 38 355 2.0 3.0 0.00 0.00 0.00 70 1025.2
20210922114005 38 5 0.0 3.0 0.00 0.00 0.00 69 1025.2
20210922113505 38 5 1.0 2.0 0.00 0.00 0.00 69 1025.3
20210922113006 38 5 1.0 2.0 0.00 0.00 0.00 69 1025.4
20210922112504 38 5 1.0 3.0 0.00 0.00 0.00 69 1025.4
20210922112005 39 5 1.0 2.0 0.00 0.00 0.00 69 1025.4
20210922111506 39 9 3.0 3.0 0.00 0.00 0.00 69 1025.4
20210922111004 39 309 2.0 3.0 0.00 0.00 0.00 70 1025.5
20210922110504 39 309 2.0 3.0 0.00 0.00 0.00 69 1025.5
20210922110005 39 304 1.0 2.0 0.00 0.00 0.00 68 1025.5
20210922105505 39 303 3.0 3.0 0.00 0.00 0.00 69 1025.5
20210922105005 39 355 2.0 3.0 0.00 0.00 0.00 68 1025.5
20210922104504 39 355 2.0 3.0 0.00 0.00 0.00 68 1025.5
20210922104005 39 355 2.0 3.0 0.00 0.00 0.00 69 1025.6
20210922103505 39 355 2.0 3.0 0.00 0.00 0.00 69 1025.6
20210922103006 39 292 2.0 3.0 0.00 0.00 0.00 69 1025.7
20210922102505 40 296 3.0 6.0 0.00 0.00 0.00 68 1025.7
20210922102005 40 9 2.0 3.0 0.00 0.00 0.00 68 1025.7
20210922101504 40 9 1.0 3.0 0.00 0.00 0.00 68 1025.7
20210922101005 40 9 1.0 3.0 0.00 0.00 0.00 68 1025.7
20210922100504 40 9 2.0 3.0 0.00 0.00 0.00 68 1025.7
20210922100004 40 9 2.0 3.0 0.00 0.00 0.00 68 1025.7
20210922095504 40 9 2.0 3.0 0.00 0.00 0.00 68 1025.7
20210922095005 41 9 3.0 3.0 0.00 0.00 0.00 68 1025.7
20210922094505 41 9 3.0 5.0 0.00 0.00 0.00 68 1025.8
20210922094004 41 9 3.0 5.0 0.00 0.00 0.00 69 1025.9
20210922093505 41 351 3.0 3.0 0.00 0.00 0.00 70 1025.9
20210922093005 41 328 3.0 3.0 0.00 0.00 0.00 71 1026.0
20210922092504 41 323 2.0 3.0 0.00 0.00 0.00 71 1026.0
20210922092005 41 308 1.0 3.0 0.00 0.00 0.00 69 1026.0
20210922091505 41 333 2.0 3.0 0.00 0.00 0.00 68 1026.1
20210922091005 42 308 1.0 2.0 0.00 0.00 0.00 67 1026.1
20210922090505 42 308 1.0 3.0 0.00 0.00 0.00 67 1025.9
20210922090006 42 308 2.0 3.0 0.00 0.00 0.00 64 1026.0
20210922085504 42 296 2.0 3.0 0.00 0.00 0.00 64 1026.0
20210922085005 42 293 2.0 3.0 0.00 0.00 0.00 64 1026.1
20210922084504 42 290 2.0 3.0 0.00 0.00 0.00 65 1026.0
20210922084005 42 355 3.0 5.0 0.00 0.00 0.00 64 1026.1
20210922083505 42 354 3.0 5.0 0.00 0.00 0.00 64 1026.0
20210922083006 42 11 2.0 5.0 0.00 0.00 0.00 65 1026.1
20210922082506 42 8 3.0 5.0 0.00 0.00 0.00 65 1026.1
20210922082005 42 314 2.0 3.0 0.00 0.00 0.00 65 1026.2
20210922081506 42 349 2.0 3.0 0.00 0.00 0.00 65 1026.2
20210922081005 42 347 2.0 3.0 0.00 0.00 0.00 65 1026.3
20210922080505 42 285 3.0 7.0 0.00 0.00 0.00 65 1026.3
20210922080006 42 311 2.0 5.0 0.00 0.00 0.00 64 1026.1
20210922075506 42 246 3.0 6.0 0.00 0.00 0.00 64 1026.3
20210922075004 42 339 2.0 5.0 0.00 0.00 0.00 64 1026.2
20210922074504 42 321 3.0 5.0 0.00 0.00 0.00 63 1026.2
20210922074006 42 292 1.0 3.0 0.00 0.00 0.00 62 1026.3
20210922073506 42 282 3.0 3.0 0.00 0.00 0.00 62 1026.3
20210922073006 42 66 2.0 3.0 0.00 0.00 0.00 61 1026.3
20210922072504 43 68 2.0 3.0 0.00 0.00 0.00 60 1026.4
20210922072005 43 68 2.0 3.0 0.00 0.00 0.00 59 1026.4
20210922071504 43 68 1.0 3.0 0.00 0.00 0.00 60 1026.4
20210922071005 43 343 2.0 8.0 0.00 0.00 0.00 61 1026.3
20210922070505 42 353 4.0 8.0 0.00 0.00 0.00 62 1026.3
20210922070006 42 350 3.0 5.0 0.00 0.00 0.00 63 1026.4
20210922065505 42 330 2.0 3.0 0.00 0.00 0.00 62 1026.4
20210922065005 42 329 3.0 3.0 0.00 0.00 0.00 62 1026.5
20210922064504 43 329 0.0 2.0 0.00 0.00 0.00 61 1026.4
20210922064006 43 329 1.0 2.0 0.00 0.00 0.00 61 1026.4
20210922063505 43 329 3.0 3.0 0.00 0.00 0.00 61 1026.4
20210922063006 43 234 2.0 3.0 0.00 0.00 0.00 60 1026.5
20210922062504 43 234 2.0 3.0 0.00 0.00 0.00 60 1026.6
20210922062005 43 234 2.0 3.0 0.00 0.00 0.00 59 1026.6
20210922061505 43 233 2.0 3.0 0.00 0.00 0.00 58 1026.7
20210922061010 44 233 1.0 3.0 0.00 0.00 0.00 58 1026.7
20210922060504 44 215 3.0 5.0 0.00 0.00 0.00 57 1026.8
20210922060006 44 173 1.0 3.0 0.00 0.00 0.00 57 1026.7
20210922055505 44 123 2.0 3.0 0.00 0.00 0.00 58 1026.8
20210922055005 44 316 3.0 3.0 0.00 0.00 0.00 59 1026.8
20210922054505 44 355 2.0 3.0 0.00 0.00 0.00 58 1026.7
20210922054005 44 346 2.0 3.0 0.00 0.00 0.00 59 1026.7
20210922053505 44 348 2.0 3.0 0.00 0.00 0.00 58 1026.7
20210922053015 45 348 1.0 2.0 0.00 0.00 0.00 56 1026.6
20210922052505 45 348 1.0 3.0 0.00 0.00 0.00 57 1026.6
20210922052005 45 346 1.0 3.0 0.00 0.00 0.00 58 1026.6
20210922051505 45 346 2.0 3.0 0.00 0.00 0.00 57 1026.6
20210922051005 45 337 2.0 3.0 0.00 0.00 0.00 57 1026.6
20210922050504 46 337 2.0 3.0 0.00 0.00 0.00 56 1026.6
20210922050005 46 337 2.0 3.0 0.00 0.00 0.00 56 1026.6
20210922045505 46 337 2.0 3.0 0.00 0.00 0.00 55 1026.7
20210922045005 46 337 2.0 3.0 0.00 0.00 0.00 54 1026.9
20210922044505 47 337 1.0 3.0 0.00 0.00 0.00 53 1026.9
20210922044006 47 337 2.0 3.0 0.00 0.00 0.00 53 1026.9
20210922043505 47 331 0.0 3.0 0.00 0.00 0.00 54 1026.7
20210922043006 47 331 2.0 3.0 0.00 0.00 0.00 53 1026.7
20210922042504 47 334 2.0 3.0 0.00 0.00 0.00 53 1026.7
20210922042005 48 258 2.0 3.0 0.00 0.00 0.00 52 1026.8
20210922041505 48 258 1.0 3.0 0.00 0.00 0.00 50 1026.9
20210922041004 48 0 2.0 3.0 0.00 0.00 0.00 51 1026.9
20210922040505 48 0 2.0 5.0 0.00 0.00 0.00 52 1027.0
20210922040005 48 358 2.0 5.0 0.00 0.00 0.00 52 1026.9
20210922035504 48 355 4.0 5.0 0.00 0.00 0.00 51 1026.8
20210922035005 49 335 3.0 5.0 0.00 0.00 0.00 51 1026.9
20210922034504 49 343 3.0 5.0 0.00 0.00 0.00 51 1027.0
20210922034005 49 339 2.0 3.0 0.00 0.00 0.00 51 1027.0
20210922033505 50 340 1.0 2.0 0.00 0.00 0.00 50 1027.1
20210922033006 50 339 1.0 3.0 0.00 0.00 0.00 50 1027.1
20210922032504 50 339 2.0 2.0 0.00 0.00 0.00 49 1027.1
20210922032005 51 339 0.0 2.0 0.00 0.00 0.00 48 1027.0
20210922031505 51 339 1.0 3.0 0.00 0.00 0.00 48 1027.0
20210922031005 52 339 2.0 3.0 0.00 0.00 0.00 47 1027.1
20210922030506 52 339 1.0 2.0 0.00 0.00 0.00 45 1027.1
20210922030006 52 340 1.0 1.0 0.00 0.00 0.00 44 1026.7
20210922025504 53 340 2.0 2.0 0.00 0.00 0.00 43 1026.9
20210922025005 54 339 1.0 3.0 0.00 0.00 0.00 44 1026.9
20210922024514 54 339 3.0 3.0 0.00 0.00 0.00 44 1026.9
20210922024005 55 340 1.0 3.0 0.00 0.00 0.00 43 1026.7
20210922023504 55 340 1.0 3.0 0.00 0.00 0.00 42 1026.8
20210922023005 55 348 2.0 3.0 0.00 0.00 0.00 41 1026.7
20210922022505 55 348 2.0 5.0 0.00 0.00 0.00 40 1026.7
20210922022005 56 335 4.0 5.0 0.00 0.00 0.00 39 1026.7
20210922021505 57 44 3.0 3.0 0.00 0.00 0.00 38 1026.6
20210922021006 57 38 2.0 3.0 0.00 0.00 0.00 37 1026.6
20210922020504 58 28 4.0 5.0 0.00 0.00 0.00 36 1026.6
20210922020005 59 10 3.0 3.0 0.00 0.00 0.00 35 1026.4
20210922015504 59 38 2.0 5.0 0.00 0.00 0.00 34 1026.3
20210922015008 60 46 3.0 5.0 0.00 0.00 0.00 31 1026.2
20210922014505 61 124 1.0 3.0 0.00 0.00 0.00 31 1026.4
20210922014005 61 123 3.0 8.0 0.00 0.00 0.00 30 1026.3
20210922013506 61 147 6.0 9.0 0.00 0.00 0.00 30 1026.3
20210922013006 62 152 1.0 3.0 0.00 0.00 0.00 31 1026.5
20210922012504 62 153 3.0 6.0 0.00 0.00 0.00 30 1026.5
20210922012005 62 125 2.0 7.0 0.00 0.00 0.00 30 1026.5
20210922011505 62 132 5.0 9.0 0.00 0.00 0.00 30 1026.5
20210922011005 63 123 6.0 9.0 0.00 0.00 0.00 29 1026.5
20210922010505 63 128 7.0 10.0 0.00 0.00 0.00 29 1026.6
20210922010006 64 121 6.0 10.0 0.00 0.00 0.00 29 1026.3
20210922005504 64 117 9.0 13.0 0.00 0.00 0.00 28 1026.3
20210922005005 64 111 7.0 12.0 0.00 0.00 0.00 28 1026.3
20210922004504 65 122 10.0 15.0 0.00 0.00 0.00 28 1026.3
20210922004005 65 122 9.0 15.0 0.00 0.00 0.00 27 1026.3
20210922003504 65 122 10.0 13.0 0.00 0.00 0.00 28 1026.2
20210922003006 66 128 9.0 14.0 0.00 0.00 0.00 28 1026.3
20210922002505 66 118 12.0 15.0 0.00 0.00 0.00 27 1026.3
20210922002006 66 123 10.0 16.0 0.00 0.00 0.00 26 1026.3
20210922001505 66 110 9.0 12.0 0.00 0.00 0.00 26 1026.3
20210922001005 67 104 10.0 15.0 0.00 0.00 0.00 26 1026.3
20210922000505 67 119 10.0 13.0 0.00 0.00 0.00 26 1026.3
20210922000005 67 114 12.0 16.0 0.00 0.00 0.00 26 1026.3
20210921235504 67 116 10.0 13.0 0.00 0.00 0.00 26 1026.4
20210921235006 67 121 12.0 18.0 0.00 0.00 0.00 26 1026.3
20210921234506 67 116 13.0 18.0 0.00 0.00 0.00 26 1026.2
20210921234005 68 110 12.0 15.0 0.00 0.00 0.00 25 1026.3
20210921233505 68 131 12.0 17.0 0.00 0.00 0.00 26 1026.3
20210921233007 68 119 13.0 18.0 0.00 0.00 0.00 25 1026.2
20210921232504 68 125 12.0 17.0 0.00 0.00 0.00 25 1026.3
20210921232005 68 109 10.0 18.0 0.00 0.00 0.00 25 1026.3
20210921231505 69 114 10.0 16.0 0.00 0.00 0.00 26 1026.4
20210921231005 68 114 8.0 12.0 0.00 0.00 0.00 26 1026.3
20210921230505 68 111 9.0 15.0 0.00 0.00 0.00 26 1026.3
20210921230006 69 121 13.0 20.0 0.00 0.00 0.00 25 1026.1
20210921225506 69 108 11.0 18.0 0.00 0.00 0.00 25 1026.0
20210921225006 69 118 13.0 20.0 0.00 0.00 0.00 25 1026.0
20210921224505 70 125 12.0 18.0 0.00 0.00 0.00 25 1026.0
20210921224005 70 108 11.0 16.0 0.00 0.00 0.00 25 1026.0
20210921223505 70 124 7.0 14.0 0.00 0.00 0.00 25 1026.1
20210921223005 70 113 8.0 17.0 0.00 0.00 0.00 26 1026.1
20210921222504 70 138 12.0 17.0 0.00 0.00 0.00 25 1026.2
20210921222004 70 135 10.0 16.0 0.00 0.00 0.00 26 1026.2
20210921221505 69 119 10.0 15.0 0.00 0.00 0.00 26 1026.1
20210921221005 69 119 12.0 16.0 0.00 0.00 0.00 25 1026.1
20210921220505 69 131 13.0 20.0 0.00 0.00 0.00 26 1026.1
20210921220006 69 98 9.0 13.0 0.00 0.00 0.00 26 1026.2
20210921215505 70 121 11.0 15.0 0.00 0.00 0.00 26 1026.3
20210921215005 70 131 12.0 16.0 0.00 0.00 0.00 26 1026.3
20210921214505 70 128 9.0 13.0 0.00 0.00 0.00 25 1026.3
20210921214005 70 124 9.0 13.0 0.00 0.00 0.00 26 1026.4
20210921213505 70 125 10.0 16.0 0.00 0.00 0.00 25 1026.6
20210921213006 70 124 9.0 15.0 0.00 0.00 0.00 26 1026.6
20210921212504 69 172 10.0 16.0 0.00 0.00 0.00 26 1026.6
20210921212005 69 133 12.0 16.0 0.00 0.00 0.00 26 1026.6
20210921211504 69 120 10.0 18.0 0.00 0.00 0.00 26 1026.6
20210921211005 69 126 11.0 18.0 0.00 0.00 0.00 27 1026.8
20210921210505 69 116 10.0 16.0 0.00 0.00 0.00 26 1027.0
20210921210006 69 121 10.0 17.0 0.00 0.00 0.00 26 1026.8
20210921205505 69 138 13.0 20.0 0.00 0.00 0.00 27 1026.9
20210921205004 69 117 13.0 17.0 0.00 0.00 0.00 26 1026.9
20210921204504 69 129 12.0 17.0 0.00 0.00 0.00 27 1026.9
20210921204006 69 121 12.0 18.0 0.00 0.00 0.00 26 1027.0
20210921203506 69 154 10.0 17.0 0.00 0.00 0.00 26 1027.1
20210921203008 69 128 9.0 16.0 0.00 0.00 0.00 27 1027.1
20210921202505 69 133 11.0 18.0 0.00 0.00 0.00 27 1027.1
20210921202005 68 154 11.0 16.0 0.00 0.00 0.00 27 1027.3
20210921201506 68 140 13.0 18.0 0.00 0.00 0.00 27 1027.4
20210921201006 68 168 8.0 14.0 0.00 0.00 0.00 28 1027.5
20210921200505 68 122 9.0 20.0 0.00 0.00 0.00 28 1027.5
20210921200006 68 88 8.0 14.0 0.00 0.00 0.00 28 1027.6
20210921195505 67 133 12.0 15.0 0.00 0.00 0.00 28 1027.8
20210921195005 67 97 9.0 13.0 0.00 0.00 0.00 28 1027.8
20210921194505 67 112 10.0 15.0 0.00 0.00 0.00 28 1027.9
20210921194006 66 112 9.0 14.0 0.00 0.00 0.00 29 1028.0
20210921193506 66 97 10.0 20.0 0.00 0.00 0.00 30 1028.0
20210921193006 66 105 10.0 15.0 0.00 0.00 0.00 30 1028.2
20210921192504 65 123 13.0 18.0 0.00 0.01 0.00 30 1028.0
20210921192005 65 120 10.0 17.0 0.00 0.01 0.00 31 1028.0
20210921191505 65 132 13.0 17.0 0.00 0.01 0.00 30 1028.0
20210921191005 65 115 16.0 20.0 0.00 0.01 0.00 31 1028.1
20210921190505 64 132 12.0 17.0 0.00 0.01 0.00 32 1028.1
20210921190006 64 126 12.0 20.0 0.00 0.01 0.00 31 1028.3
20210921185505 64 137 12.0 24.0 0.00 0.01 0.00 31 1028.2
20210921185006 64 140 13.0 16.0 0.00 0.01 0.00 32 1028.3
20210921184505 64 115 13.0 18.0 0.00 0.01 0.00 33 1028.4
20210921184005 64 136 12.0 20.0 0.00 0.01 0.00 33 1028.4
20210921183505 63 127 12.0 17.0 0.00 0.01 0.00 34 1028.5
20210921183006 63 117 16.0 20.0 0.00 0.01 0.00 33 1028.6
20210921182505 63 130 16.0 21.0 0.00 0.01 0.00 35 1028.7
20210921182005 62 131 15.0 21.0 0.00 0.01 0.00 36 1028.8
20210921181506 62 127 12.0 17.0 0.00 0.01 0.00 37 1028.8
20210921181006 61 121 14.0 21.0 0.00 0.01 0.00 36 1029.1
20210921180504 61 129 16.0 23.0 0.00 0.01 0.00 36 1029.1
20210921180006 61 122 15.0 23.0 0.00 0.01 0.00 37 1029.2
20210921175505 60 127 14.0 22.0 0.00 0.01 0.00 37 1029.2
20210921175005 60 130 17.0 24.0 0.00 0.01 0.00 38 1029.3
20210921174507 60 111 12.0 20.0 0.00 0.01 0.00 39 1029.4
20210921174013 59 124 13.0 20.0 0.00 0.01 0.00 40 1029.5
20210921173505 59 104 12.0 18.0 0.00 0.01 0.00 41 1029.6
20210921173006 59 115 12.0 18.0 0.00 0.01 0.00 41 1029.8
20210921172505 58 121 14.0 22.0 0.00 0.01 0.00 41 1029.9
20210921172006 58 119 10.0 20.0 0.00 0.01 0.00 41 1029.7
20210921171505 58 123 15.0 22.0 0.00 0.01 0.00 40 1029.8
20210921171005 58 127 16.0 20.0 0.00 0.01 0.00 40 1029.8
20210921170505 58 119 13.0 20.0 0.00 0.01 0.00 41 1029.8
20210921170005 58 125 14.0 20.0 0.00 0.01 0.00 41 1029.8
20210921165505 58 139 13.0 20.0 0.00 0.01 0.00 41 1029.8
20210921165006 58 130 14.0 21.0 0.00 0.01 0.00 41 1029.8
20210921164505 58 124 7.0 17.0 0.00 0.01 0.00 43 1029.8
20210921164005 57 138 11.0 15.0 0.00 0.01 0.00 43 1029.9
20210921163504 56 124 6.0 14.0 0.00 0.01 0.00 45 1029.9
20210921163006 56 141 8.0 12.0 0.00 0.01 0.00 47 1030.0
20210921162505 55 118 6.0 12.0 0.00 0.01 0.00 49 1030.1
20210921162005 53 102 3.0 7.0 0.00 0.01 0.00 51 1030.2
20210921161505 52 113 2.0 7.0 0.00 0.01 0.00 53 1030.3